Regional Weather Roundup
Issued by NWS Binghamton, NY

Home | Current Version | Previous Version | Text Only | Print | Product List | Glossary On
Versions: 1 2 3 4 5 6 7 8 9 10 11 12 13 14 15 16 17 18 19 20 21 22 23 24 25 26 27 28 29 30 31 32 33 34 35 36 37 38 39 40 41 42 43 44 45 46 47 48 49 50
000
ASUS41 KBGM 270610
RWRBGM

REGIONAL WEATHER ROUNDUP
NATIONAL WEATHER SERVICE BINGHAMTON NY
100 AM EST MON FEB 27 2017

Note: "fair" indicates few or no clouds below 12,000 feet with no
significant weather and/or obstructions to visibility.

* = Station(s) that does not report precipitation, such as rain,
snow, etc, also no thunder or fog.

NYZ009-015>018-022>025-036-037-044>046-055>057-062-270700
...Central New York...

CITY           SKY/WX    TMP DP  RH WIND       PRES   REMARKS
Binghamton     CLEAR     26  14  60 SW10      30.13R WCI  16
Cortland       FAIR      30  19  64 SW6       30.14S WCI  24
Dansville      CLEAR     30  16  56 SE8       30.13S WCI  22
Elmira         CLEAR     24  14  65 E3        30.17R
Seneca Falls   CLEAR     34  21  60 SW14      30.13S WCI  24
Ithaca         CLEAR     29  17  61 S8        30.15S WCI  21
Hamilton       CLEAR     28  16  59 S5        30.14R WCI  23
Monticello     CLEAR    N/A N/A N/A CALM      30.20R
Norwich        CLEAR     27  16  63 S8        30.17S WCI  18
Oneonta        PTCLDY    27  14  59 W8G16     30.12R WCI  18
Penn Yan       CLEAR     33  15  47 S14       30.12S WCI  23
Rome           PTCLDY    27  20  75 E8        30.15S WCI  19
Sidney         MOCLDY    27  18  69 CALM      30.18R
Syracuse       PTCLDY    33  17  51 SW14      30.11S WCI  23
$$

PAZ038>040-043-044-047-048-072-270700
...Northeast Pennsylvania...

CITY           SKY/WX    TMP DP  RH WIND       PRES   REMARKS
Hazleton       CLEAR     30  16  55 SW5       30.23R WCI  25
Scranton       CLEAR     30  17  58 CALM      30.22R
$$
&&
KEY
WCI = Wind Chill Index
VSB = Visibility
HX  = Heat Index
$$



USA.gov is the U.S. government's official web portal to all federal, state and local government web resources and services.